Change the Weather History Date:

Thursday, September 5, 2013

  Actual Average (KDBQ) Record (KDBQ)
Temperature  
Mean Temperature 70 °F 66 °F  
Max Temperature 78 °F 76 °F 96 °F (1899)
Min Temperature 62 °F 56 °F 44 °F (1962)
Degree Days  
Heating Degree Days 0 2  
Month to date heating degree days 10  
Since 1 July heating degree days 37  
Cooling Degree Days 5 3  
Month to date cooling degree days 18  
Year to date cooling degree days 594  
Growing Degree Days 20 (Base 50)    
Moisture  
Dew Point 61 °F    
Average Humidity 75    
Maximum Humidity 94    
Minimum Humidity 53    
Precipitation  
Precipitation 0.00 in 0.11 in 3.40 in (1876)
Month to date precipitation 0.60  
Year to date precipitation 26.58  
Snow  
Snow 0.00 in 0.00 in - ()
Month to date snowfall 0.0  
Since 1 July snowfall 0.0  
Since 1 September snowfall 0.0  
Snow Depth -    
Sea Level Pressure  
Sea Level Pressure 30.21 in    
Wind  
Wind Speed 6 mph (East)    
Max Wind Speed 15 mph    
Max Gust Speed 18 mph    
Visibility 9 miles    
Events      
T = Trace of Precipitation, MM = Missing Value Source: NWS Daily Summary

Daily Weather History Graph

Daily Weather History Graph

Search for Another Location

Airport or City:

Trip Planner

Search our weather history database for the weather conditions in past years. The results will help you decide how hot, cold, wet, or windy it might be!

Date:

Astronomy

Sep. 05, 2013 Rise Set
Actual Time 6:31 AM CDT 7:28 PM CDT
Civil Twilight 6:02 AM CDT 7:57 PM CDT
Nautical Twilight 5:27 AM CDT 8:31 PM CDT
Astronomical Twilight 4:52 AM CDT 9:07 PM CDT
Moon 6:44 AM CDT (9/5) 7:18 PM CDT (9/5)
Length of Visible Light 13h 55m
Length of Day
12h 57m
New Moon, 0% of the Moon is Illuminated
Sep 5
New Moon
Sep 12
First Quarter
Sep 19
Full
Sep 26
Last Quarter
Oct 4
New

Hourly Weather History & Observations

Time (CDT) Temp. Dew Point Humidity Pressure Visibility Wind Dir Wind Speed Gust Speed Precip Events Conditions
12:15 AM 68.2 °F 64.6 °F 88% 30.13 in 10.0 mi Calm Calm - N/A   Clear
12:35 AM 68.2 °F 65.1 °F 90% 30.13 in 10.0 mi Calm Calm - N/A   Clear
12:55 AM 67.3 °F 64.4 °F 90% 30.14 in 10.0 mi Calm Calm - N/A   Clear
1:15 AM 67.5 °F 64.4 °F 90% 30.14 in 10.0 mi Calm Calm - N/A   Clear
1:35 AM 65.5 °F 63.0 °F 92% 30.14 in 10.0 mi Calm Calm - N/A   Clear
1:55 AM 66.4 °F 63.5 °F 90% 30.14 in 10.0 mi Calm Calm - N/A   Clear
2:15 AM 66.9 °F 64.0 °F 90% 30.14 in 10.0 mi Calm Calm - N/A   Clear
2:35 AM 64.2 °F 61.9 °F 92% 30.15 in 10.0 mi Calm Calm - N/A   Clear
2:55 AM 64.4 °F 62.2 °F 93% 30.15 in 10.0 mi NE 3.5 mph - N/A   Scattered Clouds
3:15 AM 66.0 °F 63.5 °F 92% 30.16 in 10.0 mi Calm Calm - N/A   Scattered Clouds
3:35 AM 65.7 °F 63.5 °F 93% 30.16 in 10.0 mi ESE 3.5 mph - N/A   Scattered Clouds
3:55 AM 65.7 °F 63.5 °F 93% 30.16 in 10.0 mi ESE 4.6 mph - N/A   Mostly Cloudy
4:15 AM 66.0 °F 63.5 °F 92% 30.16 in 10.0 mi East 4.6 mph - N/A   Scattered Clouds
4:35 AM 66.7 °F 63.9 °F 90% 30.17 in 10.0 mi East 5.8 mph - N/A   Mostly Cloudy
4:55 AM 65.5 °F 63.0 °F 92% 30.17 in 10.0 mi ENE 8.1 mph - N/A   Scattered Clouds
5:15 AM 65.3 °F 62.8 °F 92% 30.18 in 10.0 mi ENE 8.1 mph - N/A   Scattered Clouds
5:35 AM 64.9 °F 62.8 °F 93% 30.19 in 10.0 mi ENE 8.1 mph - N/A   Mostly Cloudy
5:55 AM 64.6 °F 62.6 °F 93% 30.19 in 4.0 mi ENE 12.7 mph - N/A   Overcast
6:15 AM 64.4 °F 62.6 °F 94% 30.19 in 1.8 mi ENE 9.2 mph - N/A   Overcast
6:35 AM 64.4 °F 62.6 °F 94% 30.20 in 1.8 mi ENE 8.1 mph - N/A   Overcast
6:55 AM 64.4 °F 62.6 °F 94% 30.21 in 1.0 mi ENE 9.2 mph - N/A   Overcast
7:15 AM 64.4 °F 62.8 °F 94% 30.21 in 1.5 mi ENE 10.4 mph - N/A   Overcast
7:35 AM 64.6 °F 63.0 °F 94% 30.22 in 2.5 mi ENE 9.2 mph - N/A   Overcast
7:55 AM 64.9 °F 63.1 °F 94% 30.22 in 4.0 mi East 11.5 mph - N/A   Overcast
8:15 AM 65.5 °F 63.5 °F 93% 30.22 in 5.0 mi East 10.4 mph - N/A   Overcast
8:35 AM 66.2 °F 63.3 °F 90% 30.23 in 7.0 mi East 15.0 mph - N/A   Overcast
8:55 AM 67.5 °F 62.8 °F 85% 30.23 in 10.0 mi East 13.8 mph 17.3 mph N/A   Overcast
9:15 AM 68.0 °F 60.3 °F 76% 30.24 in 10.0 mi East 12.7 mph - N/A   Overcast
9:35 AM 68.7 °F 59.2 °F 72% 30.24 in 10.0 mi East 12.7 mph - N/A   Mostly Cloudy
9:55 AM 69.4 °F 59.0 °F 69% 30.25 in 10.0 mi East 11.5 mph - N/A   Scattered Clouds
10:15 AM 71.1 °F 59.4 °F 66% 30.25 in 10.0 mi East 10.4 mph 18.4 mph N/A   Clear
10:35 AM 70.9 °F 59.0 °F 66% 30.25 in 10.0 mi East 12.7 mph 17.3 mph N/A   Mostly Cloudy
10:55 AM 72.0 °F 59.5 °F 65% 30.25 in 10.0 mi East 10.4 mph - N/A   Scattered Clouds
11:15 AM 73.2 °F 59.5 °F 62% 30.25 in 10.0 mi East 10.4 mph - N/A   Clear
11:35 AM 73.9 °F 59.4 °F 60% 30.26 in 10.0 mi ESE 10.4 mph - N/A   Clear
11:55 AM 74.7 °F 59.9 °F 60% 30.26 in 10.0 mi ESE 10.4 mph 16.1 mph N/A   Clear
12:15 PM 75.0 °F 59.5 °F 58% 30.26 in 10.0 mi ESE 9.2 mph - N/A   Clear
12:35 PM 75.6 °F 59.2 °F 57% 30.26 in 10.0 mi East 8.1 mph - N/A   Clear
12:55 PM 76.5 °F 59.7 °F 56% 30.25 in 10.0 mi SE 11.5 mph - N/A   Clear
1:15 PM 77.2 °F 60.6 °F 56% 30.25 in 10.0 mi East 9.2 mph - N/A   Clear
1:35 PM 77.2 °F 60.1 °F 55% 30.24 in 10.0 mi East 11.5 mph - N/A   Scattered Clouds
1:55 PM 77.9 °F 60.3 °F 54% 30.24 in 10.0 mi East 9.2 mph - N/A   Clear
2:15 PM 77.7 °F 59.5 °F 53% 30.23 in 10.0 mi ENE 9.2 mph - N/A   Clear
2:35 PM 76.6 °F 59.5 °F 55% 30.23 in 10.0 mi East 6.9 mph - N/A   Clear
2:55 PM 77.0 °F 60.1 °F 56% 30.23 in 10.0 mi East 6.9 mph - N/A   Clear
3:15 PM 76.6 °F 59.9 °F 56% 30.22 in 10.0 mi East 6.9 mph - N/A   Mostly Cloudy
3:35 PM 77.5 °F 59.7 °F 54% 30.22 in 10.0 mi East 8.1 mph - N/A   Overcast
3:55 PM 77.7 °F 60.3 °F 55% 30.22 in 10.0 mi ESE 10.4 mph - N/A   Scattered Clouds
4:15 PM 77.9 °F 60.6 °F 55% 30.21 in 10.0 mi ESE 8.1 mph - N/A   Clear
4:35 PM 77.5 °F 60.4 °F 55% 30.21 in 10.0 mi ESE 8.1 mph - N/A   Clear
4:55 PM 77.5 °F 60.8 °F 56% 30.21 in 10.0 mi SE 6.9 mph - N/A   Clear
5:15 PM 77.0 °F 60.4 °F 56% 30.21 in 10.0 mi ESE 9.2 mph - N/A   Clear
5:35 PM 77.0 °F 60.4 °F 56% 30.21 in 10.0 mi East 9.2 mph - N/A   Scattered Clouds
5:55 PM 76.5 °F 60.4 °F 58% 30.20 in 10.0 mi ESE 9.2 mph - N/A   Clear
6:15 PM 75.7 °F 60.1 °F 58% 30.20 in 10.0 mi ESE 6.9 mph - N/A   Clear
6:35 PM 74.8 °F 60.1 °F 60% 30.21 in 10.0 mi ESE 5.8 mph - N/A   Clear
6:55 PM 73.6 °F 60.4 °F 63% 30.20 in 10.0 mi East 4.6 mph - N/A   Clear
7:15 PM 72.1 °F 60.4 °F 67% 30.20 in 10.0 mi East 5.8 mph - N/A   Clear
7:35 PM 70.9 °F 60.8 °F 70% 30.20 in 10.0 mi East 5.8 mph - N/A   Scattered Clouds
7:55 PM 69.4 °F 60.8 °F 74% 30.20 in 10.0 mi East 6.9 mph - N/A   Clear
8:15 PM 69.3 °F 60.4 °F 73% 30.21 in 10.0 mi East 6.9 mph - N/A   Scattered Clouds
8:35 PM 69.1 °F 59.9 °F 72% 30.21 in 10.0 mi East 6.9 mph - N/A   Scattered Clouds
8:55 PM 68.4 °F 59.5 °F 73% 30.22 in 10.0 mi ESE 6.9 mph - N/A   Scattered Clouds
9:15 PM 68.0 °F 59.2 °F 73% 30.22 in 10.0 mi ESE 8.1 mph - N/A   Clear
9:35 PM 67.1 °F 59.4 °F 76% 30.22 in 10.0 mi ESE 6.9 mph - N/A   Clear
9:55 PM 66.6 °F 59.4 °F 78% 30.22 in 10.0 mi ESE 5.8 mph - N/A   Clear
10:15 PM 65.7 °F 59.5 °F 81% 30.22 in 10.0 mi East 6.9 mph - N/A   Clear
10:35 PM 65.3 °F 59.4 °F 81% 30.22 in 10.0 mi East 8.1 mph - N/A   Clear
10:55 PM 64.9 °F 58.8 °F 81% 30.22 in 10.0 mi East 9.2 mph - N/A   Clear
11:15 PM 64.4 °F 58.1 °F 80% 30.22 in 10.0 mi ESE 9.2 mph - N/A   Clear
11:35 PM 63.5 °F 57.6 °F 81% 30.22 in 10.0 mi East 8.1 mph - N/A   Clear
11:55 PM 62.8 °F 55.4 °F 77% 30.22 in 10.0 mi East 10.4 mph - N/A   Clear